| time (UTC) | temp F | wind direction | speed knots | gust knots | rain 1hr in | rain 24hr in | rain mn in | humidity % | barometer mb |
| 20260902104503 | 84 | 0 | 2.6 | 0.0 | 0.00 | 0.00 | 0.00 | 42 | 1019.0 |
| 20260902093004 | 84 | 0 | 1.7 | 0.0 | 0.00 | 0.00 | 0.00 | 45 | 1019.0 |
| 20260902090005 | 82 | 0 | 1.7 | 0.0 | 0.00 | 0.00 | 0.00 | 42 | 1019.0 |
| 20260902084503 | 82 | 0 | 0.9 | 0.0 | 0.00 | 0.00 | 0.00 | 48 | 1019.0 |
| 20260902081503 | 79 | 0 | 1.7 | 0.0 | 0.00 | 0.00 | 0.00 | 57 | 1019.0 |
| 20260902080004 | 79 | 0 | 1.7 | 0.0 | 0.00 | 0.00 | 0.00 | 57 | 1019.0 |
| 20260902074503 | 75 | 0 | 1.7 | 0.0 | 0.00 | 0.00 | 0.00 | 69 | 1019.0 |
| 20260902071503 | 72 | 0 | 1.7 | 0.0 | 0.00 | 0.00 | 0.00 | 73 | 1018.0 |
| 20260902070006 | 72 | 0 | 1.7 | 0.0 | 0.00 | 0.00 | 0.00 | 73 | 1018.0 |
| 20260902063004 | 70 | 0 | 1.7 | 0.0 | 0.00 | 0.00 | 0.00 | 77 | 1018.0 |
| 20260902061502 | 66 | 280 | 2.6 | 0.0 | 0.00 | 0.00 | 0.00 | 82 | 1018.0 |
| 20260902060004 | 66 | 280 | 2.6 | 0.0 | 0.00 | 0.00 | 0.00 | 82 | 1018.0 |
| 20260902053003 | 66 | 0 | 1.7 | 0.0 | 0.00 | 0.00 | 0.00 | 82 | 1018.0 |
| 20260902051503 | 64 | 100 | 1.7 | 0.0 | 0.00 | 0.00 | 0.00 | 93 | 1018.0 |
| 20260902041504 | 70 | 310 | 1.7 | 0.0 | 0.00 | 0.00 | 0.00 | 73 | 1018.0 |
| 20260902040003 | 70 | 310 | 1.7 | 0.0 | 0.00 | 0.00 | 0.00 | 73 | 1018.0 |
| 20260902034504 | 70 | 0 | 1.7 | 0.0 | 0.00 | 0.00 | 0.00 | 73 | 1018.0 |
| 20260902033004 | 70 | 0 | 1.7 | 0.0 | 0.00 | 0.00 | 0.00 | 73 | 1018.0 |
| 20260902030005 | 68 | 340 | 2.6 | 0.0 | 0.00 | 0.00 | 0.00 | 82 | 1018.0 |
| 20260902020004 | 70 | 350 | 2.6 | 0.0 | 0.00 | 0.00 | 0.00 | 77 | 1018.0 |
| 20260902014503 | 70 | 20 | 2.6 | 0.0 | 0.00 | 0.00 | 0.00 | 77 | 1018.0 |
| 20260902013003 | 70 | 20 | 2.6 | 0.0 | 0.00 | 0.00 | 0.00 | 77 | 1018.0 |
| 20260902011503 | 70 | 350 | 1.7 | 0.0 | 0.00 | 0.00 | 0.00 | 73 | 1018.0 |
| 20260902010003 | 70 | 350 | 1.7 | 0.0 | 0.00 | 0.00 | 0.00 | 73 | 1018.0 |
| 20260902003004 | 70 | 340 | 4.3 | 0.0 | 0.00 | 0.00 | 0.00 | 77 | 1018.0 |
| 20260902000004 | 70 | 350 | 4.3 | 0.0 | 0.00 | 0.00 | 0.00 | 77 | 1018.0 |
| 20260901234503 | 70 | 360 | 5.2 | 0.0 | 0.00 | 0.00 | 0.00 | 77 | 1018.0 |
| 20260901233003 | 70 | 360 | 5.2 | 0.0 | 0.00 | 0.00 | 0.00 | 77 | 1018.0 |
| 20260901231504 | 70 | 360 | 5.2 | 0.0 | 0.00 | 0.00 | 0.00 | 77 | 1018.0 |
| 20260901220004 | 72 | 0 | 0.9 | 0.0 | 0.00 | 0.00 | 0.00 | 73 | 1018.0 |
| 20260901213003 | 73 | 70 | 1.7 | 0.0 | 0.00 | 0.00 | 0.00 | 64 | 1018.0 |
| 20260901211503 | 75 | 50 | 2.6 | 0.0 | 0.00 | 0.00 | 0.00 | 60 | 1017.0 |
| 20260901210003 | 75 | 50 | 2.6 | 0.0 | 0.00 | 0.00 | 0.00 | 60 | 1017.0 |
| 20260901204503 | 77 | 0 | 1.7 | 0.0 | 0.00 | 0.00 | 0.00 | 61 | 1017.0 |
| 20260901203004 | 77 | 0 | 1.7 | 0.0 | 0.00 | 0.00 | 0.00 | 61 | 1017.0 |
| 20260901200003 | 77 | 120 | 4.3 | 0.0 | 0.00 | 0.00 | 0.00 | 61 | 1017.0 |
| 20260901194503 | 79 | 100 | 4.3 | 0.0 | 0.00 | 0.00 | 0.00 | 57 | 1017.0 |
| 20260901190004 | 79 | 110 | 2.6 | 0.0 | 0.00 | 0.00 | 0.00 | 57 | 1017.0 |
| 20260901184503 | 81 | 110 | 4.3 | 0.0 | 0.00 | 0.00 | 0.00 | 54 | 1016.0 |
| 20260901180004 | 84 | 110 | 5.2 | 0.0 | 0.00 | 0.00 | 0.00 | 45 | 1016.0 |
| 20260901171503 | 84 | 120 | 7.8 | 0.0 | 0.00 | 0.00 | 0.00 | 48 | 1016.0 |
| 20260901170004 | 84 | 120 | 7.8 | 0.0 | 0.00 | 0.00 | 0.00 | 48 | 1016.0 |
| 20260901163006 | 86 | 120 | 7.8 | 0.0 | 0.00 | 0.00 | 0.00 | 45 | 1016.0 |
| 20260901153003 | 86 | 90 | 7.8 | 0.0 | 0.00 | 0.00 | 0.00 | 51 | 1017.0 |
| 20260901150004 | 86 | 110 | 0.9 | 0.0 | 0.00 | 0.00 | 0.00 | 51 | 1017.0 |
| 20260901144503 | 86 | 100 | 7.8 | 0.0 | 0.00 | 0.00 | 0.00 | 51 | 1017.0 |
| 20260901143004 | 86 | 100 | 7.8 | 0.0 | 0.00 | 0.00 | 0.00 | 51 | 1017.0 |
| 20260901141503 | 86 | 110 | 0.9 | 0.0 | 0.00 | 0.00 | 0.00 | 48 | 1017.0 |
| 20260901140004 | 86 | 110 | 0.9 | 0.0 | 0.00 | 0.00 | 0.00 | 48 | 1017.0 |
| 20260901134503 | 86 | 110 | 10.4 | 0.0 | 0.00 | 0.00 | 0.00 | 45 | 1017.0 |
| 20260901131503 | 84 | 110 | 11.3 | 0.0 | 0.00 | 0.00 | 0.00 | 45 | 1017.0 |
| 20260901123004 | 86 | 90 | 10.4 | 0.0 | 0.00 | 0.00 | 0.00 | 42 | 1017.0 |
| 20260901120004 | 84 | 110 | 11.3 | 0.0 | 0.00 | 0.00 | 0.00 | 45 | 1017.0 |
| 20260901114503 | 86 | 70 | 12.2 | 0.0 | 0.00 | 0.00 | 0.00 | 37 | 1018.0 |
| 20260901113003 | 86 | 70 | 12.2 | 0.0 | 0.00 | 0.00 | 0.00 | 37 | 1018.0 |
| 20260901111503 | 84 | 80 | 11.3 | 0.0 | 0.00 | 0.00 | 0.00 | 42 | 1018.0 |